TimeAKST,TemperatureF,Dew PointF,Humidity,Sea Level PressureIn,VisibilityMPH,Wind Direction,Wind SpeedMPH,Gust SpeedMPH,PrecipitationIn,Events,Conditions,WindDirDegrees,DateUTC
12:53 AM,45.0,37.0,74,29.73,8.0,ESE,27.6,35.7,0.03,Rain,Light Rain,110,2013-11-23 09:53:00
1:53 AM,46.0,37.0,71,29.73,10.0,East,23.0,35.7,0.03,Rain,Light Rain,100,2013-11-23 10:53:00
2:27 AM,46.9,37.9,71,29.75,10.0,ESE,16.1,29.9,0.00,Rain,Light Rain,110,2013-11-23 11:27:00
2:53 AM,46.9,37.9,71,29.75,10.0,ESE,19.6,23.0,0.00,,Overcast,110,2013-11-23 11:53:00
3:53 AM,46.0,39.9,79,29.78,5.0,SE,9.2,-,0.01,Rain,Light Rain,130,2013-11-23 12:53:00
4:06 AM,45.0,39.9,82,29.78,2.5,ESE,10.4,-,0.01,Rain,Light Rain,110,2013-11-23 13:06:00
4:14 AM,46.0,39.9,79,29.78,3.0,ESE,8.1,-,0.01,Rain,Light Rain,120,2013-11-23 13:14:00
4:53 AM,46.0,41.0,83,29.79,5.0,ESE,11.5,-,0.02,Rain,Light Rain,110,2013-11-23 13:53:00
5:01 AM,46.0,41.0,83,29.79,3.0,East,11.5,-,0.02,Rain,Light Rain,100,2013-11-23 14:01:00
5:23 AM,46.0,41.0,83,29.79,5.0,ESE,9.2,-,0.05,Rain,Rain,110,2013-11-23 14:23:00
5:53 AM,46.9,42.1,83,29.80,5.0,SSE,6.9,-,0.07,Rain,Light Rain,160,2013-11-23 14:53:00
6:53 AM,46.9,44.1,90,29.82,3.0,South,10.4,-,0.04,Rain,Rain,190,2013-11-23 15:53:00
7:04 AM,46.9,44.1,90,29.83,1.8,WSW,16.1,-,0.10,Rain,Heavy Rain,240,2013-11-23 16:04:00
7:13 AM,46.0,43.0,89,29.84,3.0,West,17.3,-,0.14,Rain,Rain,280,2013-11-23 16:13:00
7:21 AM,46.0,41.0,83,29.85,6.0,WNW,20.7,-,0.15,Rain,Rain,290,2013-11-23 16:21:00
7:53 AM,45.0,39.9,82,29.88,10.0,WNW,21.9,-,0.17,Rain,Light Rain,300,2013-11-23 16:53:00
8:00 AM,45.0,39.0,80,29.89,10.0,WNW,24.2,-,0.00,Rain,Light Rain,290,2013-11-23 17:00:00
8:53 AM,44.1,37.9,79,29.96,10.0,WNW,23.0,28.8,0.00,,Overcast,290,2013-11-23 17:53:00
9:27 AM,43.0,37.0,80,29.98,10.0,North,-9999.0,-,0.00,Rain,Light Rain,0,2013-11-23 18:27:00
9:35 AM,43.0,37.0,80,29.99,10.0,WNW,13.8,-,0.00,,Overcast,300,2013-11-23 18:35:00
9:53 AM,44.1,36.0,73,30.01,10.0,WNW,13.8,-,0.00,,Mostly Cloudy,300,2013-11-23 18:53:00
10:01 AM,44.1,35.1,71,30.01,10.0,WNW,13.8,-,N/A,,Mostly Cloudy,290,2013-11-23 19:01:00
10:53 AM,44.1,30.9,60,30.06,10.0,WNW,18.4,-,N/A,,Mostly Cloudy,290,2013-11-23 19:53:00
11:53 AM,44.1,30.9,60,30.08,10.0,NW,6.9,-,N/A,,Mostly Cloudy,310,2013-11-23 20:53:00
12:53 PM,44.1,32.0,63,30.11,10.0,WNW,13.8,-,0.00,,Mostly Cloudy,290,2013-11-23 21:53:00
1:53 PM,45.0,30.0,56,30.14,10.0,West,12.7,-,N/A,,Scattered Clouds,280,2013-11-23 22:53:00
2:53 PM,44.1,30.9,60,30.16,10.0,WNW,12.7,-,N/A,,Mostly Cloudy,300,2013-11-23 23:53:00
3:53 PM,44.1,30.0,58,30.19,10.0,WNW,9.2,-,N/A,,Scattered Clouds,290,2013-11-24 00:53:00
4:53 PM,37.9,30.0,73,30.21,10.0,East,5.8,-,N/A,,Scattered Clouds,80,2013-11-24 01:53:00
5:53 PM,37.0,30.9,79,30.23,10.0,East,5.8,-,N/A,,Scattered Clouds,90,2013-11-24 02:53:00
6:53 PM,37.0,32.0,82,30.24,10.0,East,5.8,-,N/A,,Mostly Cloudy,90,2013-11-24 03:53:00
7:53 PM,37.0,30.9,79,30.25,10.0,East,8.1,-,0.00,,Partly Cloudy,90,2013-11-24 04:53:00
8:53 PM,36.0,30.0,79,30.27,10.0,ENE,5.8,-,N/A,,Scattered Clouds,60,2013-11-24 05:53:00
9:53 PM,37.0,30.9,79,30.28,10.0,Calm,Calm,-,N/A,,Clear,0,2013-11-24 06:53:00
10:53 PM,34.0,30.0,85,30.27,10.0,Calm,Calm,-,N/A,,Clear,0,2013-11-24 07:53:00
11:53 PM,35.1,30.9,85,30.28,10.0,Calm,Calm,-,N/A,,Clear,0,2013-11-24 08:53:00